This is the latest recevied weather packets stored in our database for station/object KE5BM-13. If no packets are shown the sender has not sent any weather packets the latest 10 day(s).
| Time | Temp. | Humidity | Pressure | Rain* | Wind** | Luminosity | Snow |
|---|---|---|---|---|---|---|---|
| 1777907153 | 15.56° C | 64% | 1010.5 hPa | 0 mm | - | - | - |
| 1777906849 | 15° C | 67% | 1010.6 hPa | 0 mm | - | - | - |
| 1777906549 | 14.44° C | 67% | 1010.6 hPa | 0 mm | - | - | - |
| 1777906250 | 14.44° C | 68% | 1010.7 hPa | 0 mm | - | - | - |
| 1777905951 | 14.44° C | 66% | 1010.7 hPa | 0 mm | - | - | - |
| 1777905649 | 15° C | 67% | 1010.8 hPa | 0 mm | - | - | - |
| 1777905351 | 15.56° C | 66% | 1010.8 hPa | 0 mm | - | - | - |
| 1777905050 | 15.56° C | 64% | 1010.8 hPa | 0 mm | - | - | - |
| 1777904751 | 16.11° C | 64% | 1010.7 hPa | 0 mm | - | - | - |
| 1777904448 | 16.67° C | 60% | 1010.7 hPa | 0 mm | - | - | - |
| 1777904149 | 16.67° C | 53% | 1010.7 hPa | 0 mm | - | - | - |
| 1777903847 | 16.67° C | 51% | 1010.6 hPa | 0 mm | - | - | - |
| 1777903548 | 16.67° C | 52% | 1010.6 hPa | 0 mm | - | - | - |
| 1777903248 | 16.11° C | 52% | 1010.6 hPa | 0 mm | - | - | - |
| 1777902951 | 16.11° C | 52% | 1010.5 hPa | 0 mm | - | - | - |
| 1777902623 | 16.11° C | 53% | 1010.6 hPa | 0 mm | - | - | - |
| 1777902322 | 15.56° C | 54% | 1010.7 hPa | 0 mm | - | - | - |
| 1777902022 | 15.56° C | 53% | 1010.6 hPa | 0 mm | - | - | - |
| 1777901720 | 15.56° C | 56% | 1010.7 hPa | 0 mm | - | - | - |
| 1777901422 | 15.56° C | 55% | 1010.8 hPa | 0 mm | - | - | - |
| 1777901120 | 15.56° C | 55% | 1010.8 hPa | 0 mm | - | - | - |
| 1777900818 | 15.56° C | 56% | 1010.9 hPa | 0 mm | - | - | - |
| 1777900520 | 15.56° C | 56% | 1010.8 hPa | 0 mm | - | - | - |
| 1777900219 | 15° C | 58% | 1010.8 hPa | 0 mm | - | - | - |
| 1777899919 | 15° C | 57% | 1010.8 hPa | 0 mm | - | - | - |
* Rain latest hour (hover to see other rain measurements)
** Current wind speed in m/s (hover to see current wind gust speed)